Time,TemperatureF,DewpointF,PressureIn,WindDirection,WindDirectionDegrees,WindSpeedMPH,WindSpeedGustMPH,Humidity,HourlyPrecipIn,Conditions,Clouds,dailyrainin,SoftwareType,DateUTC
2013-01-17 06:15:00,32.3,31.0,29.97,SW,219,0.0,-999.0,95,-99.99,,,0.00,weatherlink.com 1.10,2013-01-17 11:15:00,
2013-01-17 06:29:00,32.4,31.0,29.97,SW,219,0.0,-999.0,93,-99.99,,,0.00,weatherlink.com 1.10,2013-01-17 11:29:00,
2013-01-17 06:44:00,32.8,31.0,29.99,SW,219,0.0,-999.0,91,-99.99,,,0.00,weatherlink.com 1.10,2013-01-17 11:44:00,
2013-01-17 06:59:00,33.3,30.0,29.99,SW,219,0.0,-999.0,88,-99.99,,,0.00,weatherlink.com 1.10,2013-01-17 11:59:00,
2013-01-17 07:14:00,33.8,30.0,30.00,SW,219,1.0,-999.0,86,-99.99,,,0.00,weatherlink.com 1.10,2013-01-17 12:14:00,
2013-01-17 07:29:00,34.1,30.0,30.02,SW,219,2.0,-999.0,85,-99.99,,,0.00,weatherlink.com 1.10,2013-01-17 12:29:00,
2013-01-17 07:45:00,34.3,30.0,30.01,SW,219,1.0,-999.0,85,-99.99,,,0.00,weatherlink.com 1.10,2013-01-17 12:45:00,
2013-01-17 08:00:00,34.8,30.0,30.03,NW,321,0.0,-999.0,82,-99.99,,,0.00,weatherlink.com 1.10,2013-01-17 13:00:00,
2013-01-17 08:15:00,35.4,30.0,30.03,WNW,300,0.0,-999.0,81,-99.99,,,0.00,weatherlink.com 1.10,2013-01-17 13:15:00,
2013-01-17 08:30:00,35.7,30.0,30.04,North,5,1.0,-999.0,80,-99.99,,,0.00,weatherlink.com 1.10,2013-01-17 13:30:00,
2013-01-17 08:45:00,36.1,30.0,30.04,WNW,302,0.0,-999.0,78,-99.99,,,0.00,weatherlink.com 1.10,2013-01-17 13:45:00,
2013-01-17 09:00:00,36.3,30.0,30.04,WSW,245,0.0,-999.0,78,-99.99,,,0.01,weatherlink.com 1.10,2013-01-17 14:00:00,
2013-01-17 09:15:00,36.5,30.0,30.05,NNW,331,4.0,-999.0,78,-99.99,,,0.01,weatherlink.com 1.10,2013-01-17 14:15:00,
2013-01-17 09:30:00,36.6,30.0,30.06,WNW,286,1.0,-999.0,77,-99.99,,,0.01,weatherlink.com 1.10,2013-01-17 14:30:00,
2013-01-17 09:45:00,36.6,30.0,30.06,NW,316,4.0,-999.0,77,-99.99,,,0.01,weatherlink.com 1.10,2013-01-17 14:45:00,
2013-01-17 10:00:00,36.8,30.0,30.07,WNW,287,2.0,-999.0,77,-99.99,,,0.01,weatherlink.com 1.10,2013-01-17 15:00:00,
2013-01-17 10:16:00,37.5,30.0,30.06,NW,323,9.0,-999.0,75,-99.99,,,0.01,weatherlink.com 1.10,2013-01-17 15:16:00,
2013-01-17 10:31:00,38.0,31.0,30.06,NW,326,0.0,-999.0,75,-99.99,,,0.01,weatherlink.com 1.10,2013-01-17 15:31:00,
2013-01-17 10:46:00,38.4,31.0,30.05,North,351,7.0,-999.0,74,-99.99,,,0.01,weatherlink.com 1.10,2013-01-17 15:46:00,
2013-01-17 11:01:00,38.5,31.0,30.07,NW,323,4.0,-999.0,74,-99.99,,,0.01,weatherlink.com 1.10,2013-01-17 16:01:00,
2013-01-17 11:16:00,38.9,31.0,30.05,NW,311,6.0,-999.0,73,-99.99,,,0.01,weatherlink.com 1.10,2013-01-17 16:16:00,
2013-01-17 11:31:00,39.3,31.0,30.05,NW,324,6.0,-999.0,72,-99.99,,,0.01,weatherlink.com 1.10,2013-01-17 16:31:00,
2013-01-17 11:46:00,39.5,30.0,30.05,North,355,8.0,-999.0,69,-99.99,,,0.01,weatherlink.com 1.10,2013-01-17 16:46:00,
2013-01-17 12:01:00,40.0,30.0,30.05,North,5,4.0,-999.0,68,-99.99,,,0.02,weatherlink.com 1.10,2013-01-17 17:01:00,
2013-01-17 12:16:00,40.3,30.0,30.04,NNW,337,1.0,-999.0,68,-99.99,,,0.03,weatherlink.com 1.10,2013-01-17 17:16:00,
2013-01-17 12:31:00,39.7,29.0,30.05,North,5,5.0,-999.0,67,-99.99,,,0.04,weatherlink.com 1.10,2013-01-17 17:31:00,
2013-01-17 12:47:00,39.7,30.0,30.05,NW,325,0.0,-999.0,68,-99.99,,,0.06,weatherlink.com 1.10,2013-01-17 17:47:00,
2013-01-17 13:02:00,39.9,29.0,30.04,North,355,4.0,-999.0,66,-99.99,,,0.07,weatherlink.com 1.10,2013-01-17 18:02:00,
2013-01-17 13:17:00,40.2,30.0,30.05,SSW,210,2.0,-999.0,66,-99.99,,,0.09,weatherlink.com 1.10,2013-01-17 18:17:00,
2013-01-17 13:32:00,40.5,29.0,30.04,North,9,6.0,-999.0,64,-99.99,,,0.10,weatherlink.com 1.10,2013-01-17 18:32:00,
2013-01-17 13:47:00,40.5,29.0,30.04,NNW,330,4.0,-999.0,65,-99.99,,,0.12,weatherlink.com 1.10,2013-01-17 18:47:00,
2013-01-17 14:02:00,40.6,29.0,30.05,NNW,348,4.0,-999.0,64,-99.99,,,0.13,weatherlink.com 1.10,2013-01-17 19:02:00,
2013-01-17 14:17:00,40.8,29.0,30.05,North,360,5.0,-999.0,62,-99.99,,,0.14,weatherlink.com 1.10,2013-01-17 19:17:00,
2013-01-17 14:32:00,40.5,29.0,30.05,NW,317,2.0,-999.0,63,-99.99,,,0.16,weatherlink.com 1.10,2013-01-17 19:32:00,
2013-01-17 14:47:00,40.3,29.0,30.05,NNW,346,2.0,-999.0,64,-99.99,,,0.17,weatherlink.com 1.10,2013-01-17 19:47:00,
2013-01-17 15:02:00,39.9,29.0,30.05,NW,317,6.0,-999.0,64,-99.99,,,0.18,weatherlink.com 1.10,2013-01-17 20:02:00,
2013-01-17 15:17:00,39.6,29.0,30.06,North,351,0.0,-999.0,66,-99.99,,,0.18,weatherlink.com 1.10,2013-01-17 20:17:00,
2013-01-17 15:32:00,39.5,29.0,30.06,NNW,342,0.0,-999.0,66,-99.99,,,0.19,weatherlink.com 1.10,2013-01-17 20:32:00,
2013-01-17 15:47:00,39.1,29.0,30.06,NNW,340,0.0,-999.0,67,-99.99,,,0.19,weatherlink.com 1.10,2013-01-17 20:47:00,
2013-01-17 16:03:00,38.9,29.0,30.07,NNW,336,1.0,-999.0,67,-99.99,,,0.20,weatherlink.com 1.10,2013-01-17 21:03:00,
2013-01-17 16:18:00,38.9,28.0,30.07,NW,316,0.0,-999.0,66,-99.99,,,0.20,weatherlink.com 1.10,2013-01-17 21:18:00,
2013-01-17 16:33:00,38.8,29.0,30.08,NW,316,0.0,-999.0,68,-99.99,,,0.20,weatherlink.com 1.10,2013-01-17 21:33:00,
2013-01-17 16:48:00,38.5,29.0,30.08,WNW,285,0.0,-999.0,68,-99.99,,,0.21,weatherlink.com 1.10,2013-01-17 21:48:00,
2013-01-17 17:03:00,38.2,29.0,30.08,WNW,285,0.0,-999.0,69,-99.99,,,0.21,weatherlink.com 1.10,2013-01-17 22:03:00,
2013-01-17 17:18:00,37.9,29.0,30.09,WNW,285,0.0,-999.0,70,-99.99,,,0.21,weatherlink.com 1.10,2013-01-17 22:18:00,
2013-01-17 17:33:00,37.8,29.0,30.09,WNW,285,0.0,-999.0,71,-99.99,,,0.21,weatherlink.com 1.10,2013-01-17 22:33:00,
2013-01-17 17:48:00,37.8,30.0,30.10,WNW,285,0.0,-999.0,72,-99.99,,,0.22,weatherlink.com 1.10,2013-01-17 22:48:00,
2013-01-17 18:03:00,37.7,29.0,30.09,WNW,285,0.0,-999.0,71,-99.99,,,0.22,weatherlink.com 1.10,2013-01-17 23:03:00,
2013-01-17 18:18:00,37.1,29.0,30.10,NW,321,4.0,-999.0,73,-99.99,,,0.22,weatherlink.com 1.10,2013-01-17 23:18:00,
2013-01-17 18:34:00,36.4,29.0,30.11,North,355,4.0,-999.0,73,-99.99,,,0.22,weatherlink.com 1.10,2013-01-17 23:34:00,
2013-01-17 18:49:00,35.8,29.0,30.11,NE,44,0.0,-999.0,75,-99.99,,,0.22,weatherlink.com 1.10,2013-01-17 23:49:00,
2013-01-17 19:04:00,35.4,28.0,30.12,NNW,332,4.0,-999.0,75,-99.99,,,0.22,weatherlink.com 1.10,2013-01-18 00:04:00,
2013-01-17 19:19:00,35.3,28.0,30.12,North,355,2.0,-999.0,74,-99.99,,,0.22,weatherlink.com 1.10,2013-01-18 00:19:00,
2013-01-17 19:34:00,34.8,27.0,30.11,NNW,330,2.0,-999.0,72,-99.99,,,0.22,weatherlink.com 1.10,2013-01-18 00:34:00,
2013-01-17 19:49:00,34.3,26.0,30.11,North,355,2.0,-999.0,72,-99.99,,,0.22,weatherlink.com 1.10,2013-01-18 00:49:00,
2013-01-17 20:04:00,33.8,25.0,30.11,NNE,13,0.0,-999.0,71,-99.99,,,0.22,weatherlink.com 1.10,2013-01-18 01:04:00,
2013-01-17 20:19:00,33.5,25.0,30.11,NNE,23,0.0,-999.0,70,-99.99,,,0.22,weatherlink.com 1.10,2013-01-18 01:19:00,
2013-01-17 20:34:00,33.2,25.0,30.11,NNE,21,0.0,-999.0,71,-99.99,,,0.22,weatherlink.com 1.10,2013-01-18 01:34:00,
2013-01-17 20:49:00,32.8,24.0,30.11,North,5,2.0,-999.0,69,-99.99,,,0.22,weatherlink.com 1.10,2013-01-18 01:49:00,
2013-01-17 21:04:00,32.5,24.0,30.10,NNW,333,0.0,-999.0,70,-99.99,,,0.22,weatherlink.com 1.10,2013-01-18 02:04:00,
2013-01-17 21:20:00,32.3,24.0,30.10,North,360,3.0,-999.0,70,-99.99,,,0.22,weatherlink.com 1.10,2013-01-18 02:20:00,
2013-01-17 21:35:00,32.0,24.0,30.10,NNE,26,1.0,-999.0,71,-99.99,,,0.22,weatherlink.com 1.10,2013-01-18 02:35:00,
2013-01-17 21:50:00,31.5,23.0,30.10,North,355,4.0,-999.0,71,-99.99,,,0.22,weatherlink.com 1.10,2013-01-18 02:50:00,
2013-01-17 22:05:00,31.0,23.0,30.10,NNE,17,0.0,-999.0,71,-99.99,,,0.22,weatherlink.com 1.10,2013-01-18 03:05:00,
2013-01-17 22:20:00,30.7,22.0,30.09,North,355,2.0,-999.0,70,-99.99,,,0.22,weatherlink.com 1.10,2013-01-18 03:20:00,
2013-01-17 22:35:00,30.3,21.0,30.06,North,349,4.0,-999.0,69,-99.99,,,0.22,weatherlink.com 1.10,2013-01-18 03:35:00,